[[{"header":{"parameterUnit":"m.s-1","parameterCategory":1,"la1":30.2991,"la2":30.254,"lo1":-89.0895,"lo2":-89.0444,"dy":0.0017,"dx":0.0017,"nx":28,"ny":28,"refTime":"2024-05-10T03:00:00:Z","depth":0,"parameterNumber":2,"parameterNumberName":"U-component_of_WINDS"},"data":[0,0,0,0,0,0,0,0,0,0,0,0,0,0,0,0,0,0,0,0,0,0,0,0,0,0,0,0,0,0,0,0,0,0,0,0,0,0,0,0,0,0,0,0,0,0,0,0,0,0,0,0,0,0,0,0,0,0,2.5024,2.5025,0,2.5131,2.5132,2.5133,2.512,2.5118,2.5116,2.5115,2.523,2.5234,2.5239,0,0,0,0,0,0,0,0,0,0,0,0,0,2.4816,2.482,2.5024,2.5025,2.5026,2.513,2.5132,2.5133,2.512,2.5118,2.5116,2.5114,2.5228,2.5234,2.5239,0,0,0,0,0,0,0,0,0,0,0,0,0,2.4913,2.4821,2.5024,2.5032,2.5034,2.513,2.5132,2.5134,2.5121,2.5118,2.5115,2.5113,2.5226,2.5233,2.524,2.5336,0,0,2.5262,2.5265,0,0,0,0,0,0,0,0,2.4907,2.4921,2.503,2.5032,2.5034,2.5109,2.5101,2.5202,2.5121,2.5088,2.5115,2.5112,2.5192,2.5202,2.5228,2.5341,2.5346,2.5262,2.5267,2.527,2.5272,0,0,0,0,0,0,0,2.4901,2.4916,2.5066,2.5031,2.5034,2.5033,2.5044,2.512,2.5154,2.5091,2.509,2.5102,2.5193,2.5221,2.523,2.5348,2.5262,2.5268,2.5273,2.5275,2.5548,2.5551,0,0,0,0,0,0,2.4891,2.491,2.5063,2.5069,2.4963,2.5039,2.5051,2.5088,2.5153,2.516,2.5105,2.5101,2.521,2.5222,2.5234,2.5352,2.5269,2.5276,2.528,2.5545,2.5549,2.5552,0,0,0,0,0,0,2.4886,2.4904,2.5058,2.499,2.5009,2.5045,2.5087,2.5091,2.5119,2.5163,2.517,2.5127,2.5209,2.5224,2.5311,2.5356,2.5279,2.5286,2.5542,2.5546,2.555,2.5587,0,0,0,0,0,0,2.488,2.4903,2.4938,2.4991,2.5013,2.5131,2.5089,2.5095,2.5131,2.5128,2.5186,2.5193,2.5208,2.53,2.5318,2.5364,2.5291,2.5538,2.5544,2.5549,2.5582,2.5592,2.5601,0,0,0,0,0,2.4873,2.4945,2.494,2.4958,2.5057,2.5134,2.5147,2.5161,2.5134,2.5171,2.52,2.5191,2.5348,2.5309,2.5329,2.5378,2.5535,2.5542,2.5549,2.5578,2.559,2.5601,0,0,0,0,0,0,2.4898,2.4952,2.4947,2.5037,2.5081,2.5131,2.5177,2.5173,2.5227,2.5222,2.524,2.5253,2.534,2.5368,2.5324,2.5475,2.5438,2.5449,2.5454,2.5466,2.5475,2.5467,2.5297,0,0,0,0,0,2.4913,2.4969,2.5014,2.509,2.5112,2.5141,2.5175,2.5182,2.5229,2.5248,2.5283,2.533,2.5391,2.543,2.5488,2.5586,2.56,2.563,2.5639,2.5647,2.5656,2.5713,2.5727,2.5574,2.5574,2.5574,0,0,2.4947,2.4983,2.5017,2.5095,2.513,2.519,2.5157,2.5221,2.5266,2.5258,2.5341,2.5369,2.5424,2.5517,2.556,2.5543,2.5702,2.5656,2.5661,2.5667,2.5721,2.5735,2.5748,2.5579,2.5578,2.5578,0,0,2.5038,2.507,2.5137,2.5173,2.5226,2.5245,2.5261,2.5313,2.5331,2.5414,2.5411,2.5466,2.5569,2.5608,2.5642,2.5751,2.5745,2.5769,2.5819,2.5874,2.5886,2.5896,2.5936,2.595,2.5778,2.5779,2.5779,0,2.5073,2.516,2.5173,2.5238,2.5273,2.5268,2.5338,2.5373,2.5442,2.5468,2.5447,2.5578,2.5614,2.5717,2.5744,2.5771,2.5792,2.5762,2.5882,2.5893,2.5904,2.5942,2.5957,2.5781,2.5781,2.5781,2.578,0,2.5202,2.5263,2.5311,2.5377,2.5418,2.5485,2.551,2.5551,2.5556,2.5578,2.5665,2.5709,2.5776,2.5801,2.5807,2.5906,2.5894,2.5878,2.5841,2.5921,2.5957,2.5972,2.5785,2.5784,2.5783,2.5782,0,0,2.531,2.5383,2.54,2.5431,2.549,2.5539,2.5607,2.5671,2.5707,2.5756,2.5815,2.5903,2.5889,2.5927,2.5937,2.5985,2.6071,2.5964,2.5965,2.5983,2.6185,2.6197,2.6214,2.6068,2.6071,2.6073,2.6181,0,2.5407,2.5525,2.554,2.5646,2.5704,2.5701,2.5761,2.5805,2.5829,2.5883,2.591,2.5973,2.5948,2.5972,2.6019,2.605,2.6112,2.6043,2.6125,2.6128,2.6111,2.6233,2.6245,2.6345,2.6195,2.6198,2.6199,0,2.5536,2.5587,2.5699,2.5751,2.5776,2.5829,2.5891,2.5942,2.5993,2.6007,2.6051,2.6056,2.6129,2.609,2.6192,2.6145,2.618,2.6201,2.6205,2.6213,2.6168,2.6245,2.6377,2.6392,2.6222,2.622,2.6218,0,2.5604,2.5702,2.5781,2.5808,2.5871,2.5909,2.5937,2.5986,2.6024,2.6079,2.6105,2.6168,2.6202,2.6252,2.6275,2.6244,2.6378,2.6339,2.6393,2.6393,2.6421,2.6419,2.6561,2.6443,2.6443,2.6442,2.6442,0,2.5711,2.578,2.5813,2.5862,2.594,2.5958,2.6035,2.6062,2.6106,2.6162,2.6165,2.6218,2.6245,2.6303,2.6322,2.6405,2.6421,2.6436,2.644,2.6436,2.6434,2.6459,2.6453,2.6446,2.6446,2.6445,2.6444,0,2.5801,2.5825,2.5912,2.5965,2.598,2.6035,2.6082,2.6131,2.6155,2.6226,2.6244,2.6282,2.6351,2.6379,2.6464,2.6476,2.6573,2.6571,2.6555,2.6556,2.6608,2.6603,2.6772,2.6795,2.6661,2.6662,2.6663,0,2.5867,2.592,2.5978,2.6015,2.6045,2.6105,2.6144,2.6165,2.6206,2.6269,2.6312,2.638,2.6435,2.6546,2.6583,2.6649,2.6649,2.6704,2.6659,2.6654,2.6651,2.6648,2.6654,2.6712,2.6713,2.6714,2.6715,0,2.5983,2.5993,2.6048,2.6109,2.6156,2.6205,2.6253,2.6284,2.6312,2.6359,2.6429,2.6472,2.6558,2.6627,2.6695,2.6727,2.6727,2.6729,2.6745,2.6741,2.673,2.6738,2.6577,2.6725,2.6724,2.6723,2.6723,2.6723,2.6064,2.6111,2.616,2.6222,2.6261,2.6306,2.6355,2.6385,2.6443,2.6513,2.6523,2.6598,2.6651,2.6742,2.6777,2.6838,2.6824,2.6847,2.6853,2.6859,2.6863,2.672,2.6851,2.685,2.685,2.685,2.685,0,2.618,2.6212,2.6269,2.6336,2.6386,2.638,2.6434,2.6476,2.6542,2.659,2.6645,2.6727,2.6794,2.6837,2.6905,2.6946,2.6948,2.6963,2.6961,2.6969,2.687,2.685,2.6961,2.6961,2.6961,2.6961,2.6961,2.6961,2.6247,2.6327,2.6343,2.6444,2.6476,2.6548,2.6579,2.6622,2.6661,2.6751,2.6807,2.6834,2.6881,2.6953,2.7016,2.7027,2.7052,2.7069,2.7079,2.6987,2.6975,2.6964,2.6945,2.7074,2.7074,2.7173,2.7174,2.7174]},{"header":{"parameterUnit":"m.s-1","parameterCategory":1,"la1":30.2991,"la2":30.254,"lo1":-89.0895,"lo2":-89.0444,"dy":0.0017,"dx":0.0017,"nx":28,"ny":28,"refTime":"2024-05-10T03:00:00:Z","depth":0,"parameterNumber":3,"parameterNumberName":"V-component_of_WINDS"},"data":[0,0,0,0,0,0,0,0,0,0,0,0,0,0,0,0,0,0,0,0,0,0,0,0,0,0,0,0,0,0,0,0,0,0,0,0,0,0,0,0,0,0,0,0,0,0,0,0,0,0,0,0,0,0,0,0,0,0,2.2917,2.2919,0,2.3105,2.3107,2.3109,2.3178,2.3177,2.3177,2.3176,2.3366,2.3372,2.3377,0,0,0,0,0,0,0,0,0,0,0,0,0,2.2615,2.262,2.2917,2.2919,2.2922,2.3105,2.3107,2.311,2.3178,2.3177,2.3176,2.3176,2.3364,2.3371,2.3378,0,0,0,0,0,0,0,0,0,0,0,0,0,2.2769,2.2622,2.2917,2.2978,2.2985,2.3104,2.3107,2.3111,2.3178,2.3177,2.3176,2.3175,2.3362,2.337,2.3379,2.345,0,0,2.3404,2.3408,0,0,0,0,0,0,0,0,2.276,2.278,2.2967,2.2974,2.2982,2.3117,2.3071,2.3224,2.3178,2.3105,2.3176,2.3175,2.3284,2.3299,2.3336,2.3459,2.3467,2.3405,2.341,2.3414,2.3416,0,0,0,0,0,0,0,2.2749,2.2772,2.2991,2.2969,2.2979,2.2995,2.3016,2.31,2.3197,2.3111,2.3117,2.3138,2.3288,2.3328,2.3341,2.347,2.3405,2.3412,2.3418,2.3421,2.366,2.3661,0,0,0,0,0,0,2.2729,2.2763,2.2985,2.2997,2.2867,2.3001,2.3025,2.3075,2.3197,2.3214,2.3139,2.314,2.3314,2.3331,2.3348,2.3439,2.3414,2.3422,2.3427,2.3658,2.366,2.3661,0,0,0,0,0,0,2.2722,2.2748,2.2978,2.2882,2.2912,2.3008,2.3063,2.3079,2.3119,2.3217,2.3235,2.3161,2.3314,2.3336,2.3424,2.3447,2.3426,2.3433,2.3657,2.3659,2.3661,2.3622,0,0,0,0,0,0,2.2713,2.2745,2.2774,2.2882,2.2917,2.3051,2.3065,2.3083,2.3133,2.3138,2.3243,2.326,2.3314,2.3411,2.3432,2.3458,2.344,2.3655,2.3658,2.366,2.3622,2.3622,2.3623,0,0,0,0,0,2.2702,2.2755,2.2775,2.2801,2.2955,2.3053,2.3073,2.3135,2.3135,2.3164,2.3227,2.3257,2.3441,2.3419,2.3444,2.3472,2.3654,2.3657,2.366,2.3621,2.3622,2.3623,0,0,0,0,0,0,2.2646,2.277,2.2793,2.2883,2.2957,2.3064,2.3103,2.3134,2.3209,2.321,2.3283,2.3306,2.3388,2.3439,2.3414,2.3548,2.3549,2.3557,2.3511,2.3513,2.3513,2.3499,2.3447,0,0,0,0,0,2.2644,2.2714,2.2818,2.2887,2.2923,2.3006,2.3051,2.3093,2.3172,2.3204,2.3273,2.3348,2.3423,2.3471,2.3545,2.3629,2.3653,2.3661,2.3661,2.3661,2.3667,2.3715,2.372,2.3671,2.3671,2.3671,0,0,2.2641,2.2717,2.2757,2.2878,2.294,2.301,2.3032,2.3105,2.3158,2.3215,2.3302,2.3356,2.3444,2.3531,2.3572,2.3576,2.3686,2.3665,2.3664,2.367,2.3718,2.3723,2.3727,2.3673,2.3672,2.3672,0,0,2.2671,2.2736,2.28,2.2862,2.2956,2.3012,2.3027,2.313,2.3168,2.3257,2.3301,2.3364,2.3491,2.3553,2.36,2.3653,2.3683,2.3675,2.3678,2.3724,2.3728,2.3732,2.375,2.3756,2.3681,2.3681,2.3681,0,2.2655,2.2763,2.2829,2.2901,2.2952,2.3007,2.3073,2.3129,2.3242,2.3276,2.3279,2.344,2.3503,2.3605,2.3617,2.3654,2.3674,2.3663,2.3722,2.3726,2.3731,2.3749,2.3756,2.3679,2.3679,2.3679,2.368,0,2.2738,2.2812,2.2853,2.2962,2.3018,2.3086,2.3162,2.321,2.3247,2.3301,2.3391,2.347,2.3561,2.3588,2.3624,2.3694,2.3693,2.3708,2.3711,2.3733,2.3752,2.3759,2.3677,2.3677,2.3678,2.3678,0,0,2.2738,2.2883,2.2897,2.2946,2.3054,2.3113,2.3182,2.3272,2.3313,2.3388,2.3449,2.3555,2.3569,2.3623,2.3667,2.3707,2.3744,2.3717,2.372,2.3719,2.3825,2.3813,2.3821,2.3764,2.3766,2.3767,2.3818,0,2.2782,2.291,2.2972,2.3073,2.3142,2.3196,2.3257,2.3329,2.3381,2.3447,2.3505,2.3579,2.3593,2.3626,2.3668,2.373,2.3766,2.3727,2.382,2.3822,2.3796,2.383,2.3818,2.3863,2.3825,2.3827,2.3828,0,2.285,2.2927,2.3035,2.3135,2.3166,2.322,2.3307,2.3369,2.3452,2.3487,2.3548,2.359,2.3665,2.3663,2.3766,2.3739,2.378,2.3816,2.382,2.383,2.3826,2.3842,2.3878,2.3885,2.384,2.3839,2.3838,0,2.2839,2.2969,2.3051,2.3092,2.321,2.3246,2.3297,2.3379,2.3429,2.3505,2.3538,2.3621,2.3666,2.3729,2.3793,2.3785,2.389,2.3893,2.3921,2.3919,2.3941,2.3938,2.3984,2.3967,2.3967,2.3967,2.3967,0,2.2881,2.2945,2.3047,2.3097,2.317,2.324,2.331,2.3365,2.3437,2.3498,2.3549,2.3605,2.3686,2.3751,2.3801,2.3879,2.3899,2.393,2.3942,2.3925,2.3921,2.3953,2.3952,2.3969,2.3969,2.3968,2.3968,0,2.2881,2.2952,2.3044,2.3149,2.3177,2.3226,2.3315,2.3365,2.342,2.3497,2.3519,2.3605,2.3685,2.3755,2.386,2.3894,2.3974,2.3989,2.3946,2.3953,2.3977,2.3974,2.4044,2.4057,2.4031,2.4032,2.4032,0,2.2903,2.2954,2.3064,2.3109,2.3159,2.3231,2.3282,2.3353,2.3404,2.3502,2.354,2.3625,2.3696,2.3821,2.3893,2.3974,2.3991,2.401,2.4003,2.3985,2.3991,2.3987,2.3993,2.401,2.401,2.401,2.401,0,2.2935,2.2968,2.304,2.3125,2.3186,2.3256,2.3327,2.3361,2.3445,2.3499,2.3583,2.3638,2.3746,2.3828,2.3917,2.3969,2.4003,2.4012,2.4022,2.4005,2.3978,2.3993,2.3946,2.401,2.401,2.401,2.401,2.401,2.2947,2.2994,2.3079,2.3158,2.322,2.3285,2.3338,2.34,2.3471,2.3565,2.3602,2.3686,2.3768,2.3891,2.3942,2.4009,2.4014,2.403,2.4034,2.4037,2.4034,2.3968,2.4025,2.4025,2.4025,2.4026,2.4026,0,2.2981,2.3038,2.3111,2.321,2.3272,2.33,2.338,2.343,2.3504,2.3577,2.3646,2.3741,2.3822,2.39,2.3984,2.4022,2.404,2.4042,2.404,2.4051,2.4024,2.4006,2.4026,2.4026,2.4026,2.4026,2.4026,2.4026,2.3006,2.3088,2.313,2.3243,2.33,2.3384,2.3427,2.3488,2.3547,2.3651,2.3719,2.3769,2.3844,2.3934,2.4009,2.403,2.4058,2.4056,2.4081,2.4054,2.4053,2.4052,2.4036,2.4062,2.4062,2.4103,2.4103,2.4103]}]]